Hourly Data Report for July 30, 2021

LYNN LAKE
MANITOBA
Current Station Operator: NAVCAN

56°51'50.000" N
101°04'34.000" W
356.60 m
5061645
71078
YYL

Download Data

Hourly Data (July 2021)
Hourly Data Report for July 30, 2021
TIME
LST
Temp Definition
°C
Dew Point Definition
°C
Rel Hum Definition
%
Precip. Amount Definition
mm

Wind Dir Definition
10's deg

Wind Spd Definition
km/h
Visibility Definition
km
Stn Press Definition
kPa
Hmdx Definition


Wind Chill Definition


Weather Definition


00:00 15.5 10.3 71 0.0 26 13 16.1 97.13     LegendNANA
01:00 16.1 10.9 71 0.0 27 11 16.1 97.13     LegendNANA
02:00 16.1 11.5 74 0.0 28 9 16.1 97.12     LegendNANA
03:00 14.2 11.4 83 0.0 28 9 16.1 97.13     LegendNANA
04:00 13.9 10.6 80 0.0 31 13 16.1 97.17     LegendNANA
05:00 13.5 10.7 83 0.0 30 11 16.1 97.22     LegendNANA
06:00 14.8 11.6 81 0.0 31 9 16.1 97.27     LegendNANA
07:00 16.5 12.2 75 0.0 33 21 16.1 97.30     LegendNANA
08:00 18.1 12.2 68 0.0 33 21 16.1 97.35     LegendNANA
09:00 19.1 12.2 64 0.0 34 24 16.1 97.40     LegendNANA
10:00 20.0 10.6 54 0.0 34 24 16.1 97.43     LegendNANA
11:00 20.8 9.2 47 0.0 32 22 16.1 97.45     LegendNANA
12:00 21.8 8.9 43 0.0 34 26 16.1 97.49     LegendNANA
13:00 21.8 8.7 43 0.0 33 32 16.1 97.52     LegendNANA
14:00 22.4 8.5 40 0.0 34 24 16.1 97.54     LegendNANA
15:00 22.2 8.8 42 0.0 33 28 16.1 97.58     LegendNANA
16:00 22.3 8.4 41 0.0 33 28 16.1 97.61     LegendNANA
17:00 22.4 8.6 41 0.0 33 26 16.1 97.63     LegendNANA
18:00 21.9 8.3 41 0.0 33 26 16.1 97.66     LegendNANA
19:00 21.3 8.1 42 0.0 31 22 16.1 97.67     LegendNANA
20:00 19.6 8.6 49 0.0 33 18 16.1 97.70     LegendNANA
21:00 16.9 8.7 58 0.0 33 11 16.1 97.76     LegendNANA
22:00 14.4 8.8 69 0.0 33 8 16.1 97.80     LegendNANA
23:00 14.0 8.7 70 0.0 31 11 16.1 97.85     LegendNANA

Notes on Data Quality.

Legend

  • E = Estimated
  • M = Missing
  • NA = Not Available*
  • [empty] = Indicates an unobserved value
Date modified: